Regional Weather Roundup
Issued by NWS Midland/Odessa, TX

Skip options and go directly to product.
Home | Oldest Version | Previous Version | Current Version | All | Text Only | Save Text | Print | Product List | Glossary Off

Skip product version selection by date and time.   

209
ASUS44 KMAF 050601
RWRMAF
MIDLAND AREA WEATHER ROUNDUP
NATIONAL WEATHER SERVICE MIDLAND TX
100 AM CDT SUN JUL 05 2015

...IN SOUTHWEST TEXAS AND SOUTHEAST NEW MEXICO...

CITY           SKY/WX    TMP DP  RH WIND       PRES   REMARKS
ALPINE         CLEAR     71  62  71 S6        30.15F
ANDREWS        FAIR      74  61  63 S3        30.05S
ARTESIA        MOCLDY    75  61  60 S7        30.03S
BIG SPRING     MOCLDY    79  62  56 SE10      30.04F
CARLSBAD       PTCLDY    77  61  57 S6        30.00S
DRYDEN           N/A     81  67  62 SE6       29.97S
FORT STOCKTON  CLEAR     77  64  64 SE12      30.01S
GUAD PASS      PTCLDY    70  60  70 NE16      30.16F
HOBBS          MOCLDY    73  61  64 SE6       30.07S
MARFA          CLEAR    N/A N/A N/A CALM      30.14S
MIDLAND AIRPK  PTCLDY    79  63  56 S10       30.04R
MIDLAND INTL   PTCLDY    76  64  66 SE8       30.03S
ODESSA         MOCLDY    78  62  57 S10       30.04R
PECOS          CLEAR     80  62  54 SE9       29.98S
PRESIDIO       FAIR      83  64  52 MISG      29.99R
SEMINOLE       MOCLDY    73  60  64 S3        30.06S
SNYDER         PTCLDY    76  63  63 S8        30.02S
WINK           CLEAR     78  61  55 SE9       30.00R
$$
...OTHER STATIONS IN TEXAS...

CITY           SKY/WX    TMP DP  RH WIND       PRES   REMARKS
ABILENE        PTCLDY    80  66  62 S9        30.00R
AMARILLO       PTCLDY    75  61  61 S13       30.04R
AUSTIN         PTCLDY    77  75  93 S9        30.01R
BROWNSVILLE    MOCLDY    79  75  87 SE6       30.02R
CORPUS CHRISTI PTCLDY    78  72  81 SE10      30.01S
DALLAS FTW     PTCLDY    82  71  69 S12       29.97S
DEL RIO        CLEAR     82  71  69 SE17      29.94R
EL PASO        CLOUDY    75  65  70 W13       30.04S
HOUSTON INT    MOCLDY    80  77  90 S5        30.03R
LUBBOCK        CLOUDY    77  61  57 S9        30.04S
SAN ANGELO     PTCLDY    77  67  71 SE8       30.00S
SAN ANTONIO    PTCLDY    79  72  79 SE10      30.01F
WACO           PTCLDY    80  73  79 S13       29.99R
WICHITA FALLS  NOT AVBL
$$
...OTHER LOCATIONS IN NEW MEXICO...

CITY           SKY/WX    TMP DP  RH WIND       PRES   REMARKS
ALAMAGORDO     MOCLDY    77  55  47 CALM      30.08R
ALBUQUERQUE    MOCLDY    73  56  54 S5        30.16R
CANNON AFB     MOCLDY    70  62  76 S7        30.07F
CLOVIS         MOCLDY    72  59  64 S12         N/A
HOLLOMAN AFB   MOCLDY    79  56  45 W5        30.05R
ROSWELL        MOCLDY    74  57  55 S6        30.02S
RUIDOSO        NOT AVBL
SANTA FE       CLOUDY    68  55  63 S5        30.20S
TRUTH OR CONSE CLOUDY    70  64  81 W6        30.12F
TUCUMCARI      MOCLDY    74  57  55 SW8       30.02F
$$

USA.gov is the U.S. government's official web portal to all federal, state and local government web resources and services.